EWG6RM EDDH-LOWI

Flight info

Callsign EWG6RM
Flight time 1h 4m
Altitude 35000
Route AMLUH2G/33 AMLUH M852 DENIX DCT ZUCKA/N0450F310 DCT GALMA M736 RDG/N0452F300 M736 DOSEL/N0453F310 M736 TULSI TULSI3A
Aircraft A320/M-SDE3FGHIRWY/LB1

Departure

Time 2026-04-26 14:17
Airport Hamburg Helmut Schmidt Airport (EDDH)

Arrival

Time 2026-04-26 15:22
Airport Innsbruck Airport (LOWI)
Time Latitude Longitude Altitude Speed Heading
2026-04-26 13:53 53.63167 10.00364 49 ft 0 kts 87°
2026-04-26 14:12 53.63167 10.00359 48 ft 3 kts 86°
2026-04-26 14:12 53.63166 10.00314 48 ft 4 kts 88°
2026-04-26 14:12 53.63169 10.00272 46 ft 4 kts 123°
2026-04-26 14:12 53.63185 10.00251 48 ft 2 kts 175°
2026-04-26 14:13 53.63186 10.00250 48 ft 0 kts 176°
2026-04-26 14:14 53.63184 10.00251 48 ft 1 kts 176°
2026-04-26 14:15 53.63167 10.00253 48 ft 4 kts 176°
2026-04-26 14:15 53.63110 10.00260 48 ft 14 kts 173°
2026-04-26 14:15 53.63001 10.00194 48 ft 19 kts 213°
2026-04-26 14:15 53.62883 10.00060 48 ft 21 kts 222°
2026-04-26 14:16 53.62812 9.99861 45 ft 19 kts 244°
2026-04-26 14:16 53.62876 9.99737 45 ft 24 kts 334°
2026-04-26 14:16 53.63262 9.99404 47 ft 97 kts 333°
2026-04-26 14:16 53.64038 9.98732 53 ft 150 kts 332°
2026-04-26 14:17 53.65023 9.97879 531 ft 160 kts 333°
2026-04-26 14:17 53.66017 9.97035 1297 ft 162 kts 333°
2026-04-26 14:17 53.67042 9.96171 1946 ft 172 kts 333°
2026-04-26 14:17 53.68194 9.95196 2359 ft 197 kts 334°
2026-04-26 14:18 53.69588 9.94669 2907 ft 215 kts 359°
2026-04-26 14:18 53.71099 9.94698 3711 ft 219 kts 359°
2026-04-26 14:18 53.72587 9.95191 4669 ft 223 kts 29°
2026-04-26 14:18 53.73633 9.97134 5522 ft 232 kts 62°
2026-04-26 14:19 53.74034 9.99895 6070 ft 258 kts 92°
2026-04-26 14:19 53.73428 10.02815 6708 ft 274 kts 129°
2026-04-26 14:19 53.71895 10.04734 7479 ft 281 kts 161°
2026-04-26 14:19 53.70007 10.05724 8325 ft 288 kts 166°
2026-04-26 14:20 53.68046 10.06569 9176 ft 294 kts 168°
2026-04-26 14:20 53.66031 10.07382 10012 ft 302 kts 168°
2026-04-26 14:20 53.63947 10.08217 10588 ft 318 kts 168°
2026-04-26 14:20 53.61749 10.09115 10879 ft 341 kts 168°
2026-04-26 14:21 53.59372 10.10109 11147 ft 362 kts 167°
2026-04-26 14:21 53.56906 10.11161 11747 ft 370 kts 167°
2026-04-26 14:21 53.54398 10.12250 12458 ft 374 kts 167°
2026-04-26 14:21 53.51866 10.13356 13191 ft 378 kts 167°
2026-04-26 14:22 53.49307 10.14470 13931 ft 382 kts 167°
2026-04-26 14:22 53.46726 10.15588 14605 ft 385 kts 168°
2026-04-26 14:22 53.44114 10.16715 15257 ft 389 kts 168°
2026-04-26 14:22 53.41484 10.17843 15892 ft 392 kts 168°
2026-04-26 14:23 53.38836 10.18976 16533 ft 395 kts 168°
2026-04-26 14:23 53.36164 10.20117 17182 ft 398 kts 168°
2026-04-26 14:23 53.33463 10.21273 17844 ft 402 kts 168°
2026-04-26 14:23 53.30742 10.22440 18516 ft 405 kts 168°
2026-04-26 14:24 53.27998 10.23614 19108 ft 409 kts 169°
2026-04-26 14:24 53.25232 10.24797 19735 ft 412 kts 168°
2026-04-26 14:24 53.22444 10.25991 20380 ft 415 kts 168°
2026-04-26 14:24 53.19637 10.27189 20995 ft 418 kts 169°
2026-04-26 14:25 53.16804 10.28392 21572 ft 421 kts 169°
2026-04-26 14:25 53.13962 10.29594 22123 ft 423 kts 169°
2026-04-26 14:25 53.11136 10.30789 22664 ft 426 kts 169°
2026-04-26 14:25 53.08252 10.32010 23199 ft 429 kts 169°
2026-04-26 14:26 53.05344 10.33239 23700 ft 432 kts 169°
2026-04-26 14:26 53.02422 10.34474 24159 ft 435 kts 169°
2026-04-26 14:26 52.99485 10.35711 24572 ft 437 kts 169°
2026-04-26 14:26 52.96524 10.36956 24975 ft 440 kts 169°
2026-04-26 14:27 52.93544 10.38209 25371 ft 442 kts 169°
2026-04-26 14:27 52.90555 10.39463 25769 ft 445 kts 169°
2026-04-26 14:27 52.87551 10.40721 26149 ft 447 kts 169°
2026-04-26 14:27 52.84522 10.41986 26544 ft 450 kts 169°
2026-04-26 14:28 52.81481 10.43258 26935 ft 452 kts 169°
2026-04-26 14:28 52.78423 10.44537 27312 ft 455 kts 169°
2026-04-26 14:28 52.75341 10.45826 27686 ft 457 kts 169°
2026-04-26 14:28 52.72246 10.47114 28050 ft 460 kts 169°
2026-04-26 14:29 52.69140 10.48400 28411 ft 462 kts 169°
2026-04-26 14:29 52.66052 10.49676 28774 ft 465 kts 169°
2026-04-26 14:29 52.62909 10.50985 29110 ft 468 kts 168°
2026-04-26 14:29 52.59794 10.52601 29442 ft 472 kts 165°
2026-04-26 14:30 52.56677 10.54336 29764 ft 474 kts 164°
2026-04-26 14:30 52.53562 10.56138 30194 ft 474 kts 163°
2026-04-26 14:30 52.50460 10.57968 30629 ft 474 kts 163°
2026-04-26 14:30 52.47360 10.59802 31051 ft 472 kts 163°
2026-04-26 14:31 52.44270 10.61612 31485 ft 471 kts 164°
2026-04-26 14:31 52.41192 10.63390 31921 ft 469 kts 164°
2026-04-26 14:31 52.38104 10.65151 32375 ft 467 kts 164°
2026-04-26 14:31 52.35039 10.66887 32833 ft 466 kts 165°
2026-04-26 14:32 52.31985 10.68616 33280 ft 464 kts 165°
2026-04-26 14:32 52.28927 10.70349 33741 ft 463 kts 165°
2026-04-26 14:32 52.25886 10.72073 34201 ft 461 kts 165°
2026-04-26 14:32 52.22867 10.73783 34611 ft 460 kts 165°
2026-04-26 14:33 52.19844 10.75495 35002 ft 459 kts 165°
2026-04-26 14:33 52.16830 10.77200 35360 ft 459 kts 164°
2026-04-26 14:33 52.13808 10.78907 35709 ft 459 kts 164°
2026-04-26 14:33 52.10795 10.80607 36053 ft 458 kts 164°
2026-04-26 14:34 52.07821 10.82283 36382 ft 458 kts 164°
2026-04-26 14:34 52.04809 10.83974 36714 ft 457 kts 164°
2026-04-26 14:34 52.01803 10.85659 37039 ft 457 kts 164°
2026-04-26 14:34 51.98791 10.87348 37264 ft 458 kts 164°
2026-04-26 14:35 51.95780 10.89033 37310 ft 459 kts 164°
2026-04-26 14:35 51.89743 10.92405 37308 ft 459 kts 164°
2026-04-26 14:36 51.83710 10.95768 37310 ft 459 kts 164°
2026-04-26 14:36 51.77672 10.99113 37310 ft 458 kts 164°
2026-04-26 14:37 51.71643 11.02451 37311 ft 458 kts 164°
2026-04-26 14:37 51.65610 11.05790 37318 ft 459 kts 164°
2026-04-26 14:38 51.59572 11.09109 37319 ft 459 kts 164°
2026-04-26 14:38 51.53531 11.12418 37317 ft 458 kts 164°
2026-04-26 14:39 51.47489 11.15728 37323 ft 458 kts 164°
2026-04-26 14:39 51.41460 11.19034 37319 ft 458 kts 164°
2026-04-26 14:40 51.35467 11.22307 37321 ft 458 kts 164°
2026-04-26 14:40 51.29431 11.25575 37328 ft 458 kts 164°
2026-04-26 14:41 51.23402 11.28834 37322 ft 457 kts 164°
2026-04-26 14:41 51.17377 11.32092 37314 ft 457 kts 164°
2026-04-26 14:42 51.11361 11.35345 37319 ft 457 kts 164°
2026-04-26 14:42 51.05337 11.38572 37317 ft 457 kts 164°
2026-04-26 14:43 50.99309 11.41787 37317 ft 457 kts 164°
2026-04-26 14:43 50.93286 11.45002 37308 ft 457 kts 164°
2026-04-26 14:44 50.87263 11.48213 37311 ft 456 kts 164°
2026-04-26 14:44 50.81282 11.51398 37308 ft 456 kts 164°
2026-04-26 14:45 50.75139 11.53426 37304 ft 448 kts 180°
2026-04-26 14:45 50.68903 11.53992 37304 ft 449 kts 180°
2026-04-26 14:46 50.62668 11.54533 37291 ft 449 kts 180°
2026-04-26 14:46 50.56429 11.55079 37294 ft 449 kts 180°
2026-04-26 14:47 50.50190 11.55623 37288 ft 449 kts 180°
2026-04-26 14:47 50.43946 11.56173 37282 ft 449 kts 180°
2026-04-26 14:48 50.37701 11.56721 37279 ft 449 kts 180°
2026-04-26 14:48 50.31501 11.57257 37280 ft 449 kts 180°
2026-04-26 14:49 50.25262 11.57803 37283 ft 449 kts 180°
2026-04-26 14:49 50.19027 11.58353 37285 ft 449 kts 180°
2026-04-26 14:50 50.12788 11.58907 37279 ft 449 kts 180°
2026-04-26 14:50 50.06553 11.59464 37276 ft 449 kts 180°
2026-04-26 14:51 50.01362 11.59906 37272 ft 449 kts 180°
2026-04-26 14:51 49.95128 11.60416 37261 ft 449 kts 180°
2026-04-26 14:52 49.88887 11.60935 37264 ft 449 kts 180°
2026-04-26 14:52 49.82641 11.61475 37255 ft 449 kts 180°
2026-04-26 14:53 49.76401 11.62008 37255 ft 449 kts 180°
2026-04-26 14:53 49.70155 11.62542 37254 ft 449 kts 180°
2026-04-26 14:54 49.63920 11.63077 37252 ft 449 kts 180°
2026-04-26 14:54 49.57680 11.63598 37250 ft 449 kts 180°
2026-04-26 14:55 49.51429 11.64120 37253 ft 449 kts 180°
2026-04-26 14:55 49.45192 11.64650 37252 ft 449 kts 180°
2026-04-26 14:56 49.38991 11.65170 37248 ft 449 kts 180°
2026-04-26 14:56 49.32727 11.65696 37245 ft 449 kts 180°
2026-04-26 14:57 49.26480 11.66219 37243 ft 449 kts 180°
2026-04-26 14:57 49.20246 11.66734 37242 ft 449 kts 180°
2026-04-26 14:58 49.14001 11.67251 37240 ft 449 kts 180°
2026-04-26 14:58 49.07809 11.67773 37240 ft 449 kts 180°
2026-04-26 14:59 49.01576 11.68296 37236 ft 449 kts 180°
2026-04-26 14:59 48.95335 11.68802 36884 ft 448 kts 180°
2026-04-26 14:59 48.93270 11.68969 36701 ft 448 kts 180°
2026-04-26 15:00 48.89113 11.69306 36355 ft 448 kts 180°
2026-04-26 15:00 48.85999 11.69560 36091 ft 447 kts 181°
2026-04-26 15:00 48.82896 11.69812 35837 ft 447 kts 181°
2026-04-26 15:00 48.79790 11.70067 35583 ft 447 kts 181°
2026-04-26 15:01 48.76685 11.70323 35328 ft 447 kts 181°
2026-04-26 15:01 48.73581 11.70579 35081 ft 447 kts 181°
2026-04-26 15:01 48.70475 11.70833 34829 ft 446 kts 181°
2026-04-26 15:01 48.67378 11.71087 34596 ft 446 kts 181°
2026-04-26 15:02 48.64273 11.71343 34355 ft 446 kts 181°
2026-04-26 15:02 48.61180 11.71597 34094 ft 446 kts 181°
2026-04-26 15:02 48.58100 11.71847 33813 ft 447 kts 181°
2026-04-26 15:02 48.55039 11.72093 33544 ft 447 kts 181°
2026-04-26 15:03 48.52320 11.72323 33301 ft 448 kts 181°
2026-04-26 15:03 48.49234 11.72575 33028 ft 449 kts 181°
2026-04-26 15:03 48.46071 11.72825 32751 ft 450 kts 181°
2026-04-26 15:03 48.42985 11.73066 32493 ft 451 kts 181°
2026-04-26 15:04 48.39846 11.73312 32244 ft 452 kts 181°
2026-04-26 15:04 48.36697 11.73562 31975 ft 453 kts 181°
2026-04-26 15:04 48.33544 11.73815 31715 ft 454 kts 181°
2026-04-26 15:04 48.30382 11.74073 31466 ft 455 kts 181°
2026-04-26 15:05 48.27218 11.74335 31175 ft 456 kts 181°
2026-04-26 15:05 48.25113 11.74508 30496 ft 458 kts 180°
2026-04-26 15:05 48.20817 11.74847 28782 ft 465 kts 180°
2026-04-26 15:05 48.17573 11.75100 27689 ft 466 kts 180°
2026-04-26 15:06 48.14370 11.75355 27069 ft 458 kts 180°
2026-04-26 15:06 48.11203 11.75612 26309 ft 453 kts 180°
2026-04-26 15:06 48.08072 11.75869 25568 ft 448 kts 179°
2026-04-26 15:06 48.04965 11.76119 24828 ft 445 kts 179°
2026-04-26 15:07 47.98866 11.76599 23320 ft 438 kts 179°
2026-04-26 15:07 47.95842 11.76838 22602 ft 433 kts 179°
2026-04-26 15:07 47.92847 11.77077 21889 ft 427 kts 179°
2026-04-26 15:08 47.89893 11.77313 21190 ft 422 kts 179°
2026-04-26 15:08 47.86973 11.77542 20547 ft 418 kts 179°
2026-04-26 15:08 47.84079 11.77770 19897 ft 415 kts 179°
2026-04-26 15:08 47.81222 11.77996 19287 ft 411 kts 179°
2026-04-26 15:09 47.78363 11.78222 18688 ft 408 kts 179°
2026-04-26 15:09 47.75532 11.78443 18064 ft 406 kts 179°
2026-04-26 15:09 47.72721 11.78658 17483 ft 402 kts 179°
2026-04-26 15:09 47.69957 11.79203 16903 ft 401 kts 169°
2026-04-26 15:10 47.67306 11.80457 16278 ft 400 kts 161°
2026-04-26 15:10 47.65590 11.81431 15870 ft 397 kts 161°
2026-04-26 15:10 47.62154 11.83368 15020 ft 393 kts 161°
2026-04-26 15:10 47.59632 11.84781 14523 ft 377 kts 161°
2026-04-26 15:11 47.57300 11.86084 14330 ft 350 kts 161°
2026-04-26 15:11 47.55082 11.87321 13975 ft 331 kts 161°
2026-04-26 15:11 47.52977 11.88494 13583 ft 317 kts 161°
2026-04-26 15:11 47.50941 11.89628 13182 ft 310 kts 162°
2026-04-26 15:12 47.48931 11.90744 12791 ft 307 kts 161°
2026-04-26 15:12 47.46935 11.91834 12408 ft 305 kts 165°
2026-04-26 15:12 47.44883 11.92452 12104 ft 294 kts 178°
2026-04-26 15:12 47.42912 11.92404 11963 ft 272 kts 190°
2026-04-26 15:13 47.41127 11.91826 11842 ft 253 kts 201°
2026-04-26 15:13 47.39560 11.90845 11725 ft 237 kts 211°
2026-04-26 15:13 47.38167 11.89632 11406 ft 230 kts 212°
2026-04-26 15:13 47.36799 11.88427 11031 ft 228 kts 212°
2026-04-26 15:14 47.35453 11.87212 10653 ft 226 kts 217°
2026-04-26 15:14 47.35143 11.86872 10568 ft 225 kts 220°
2026-04-26 15:14 47.34194 11.85416 9831 ft 237 kts 232°
2026-04-26 15:15 47.33290 11.83449 9561 ft 229 kts 241°
2026-04-26 15:15 47.32650 11.81404 9448 ft 212 kts 246°
2026-04-26 15:15 47.32152 11.79388 9205 ft 203 kts 253°
2026-04-26 15:15 47.31823 11.77416 8857 ft 199 kts 257°
2026-04-26 15:16 47.31542 11.75427 8515 ft 199 kts 258°
2026-04-26 15:16 47.31266 11.73405 8158 ft 201 kts 259°
2026-04-26 15:16 47.30996 11.71418 7844 ft 195 kts 259°
2026-04-26 15:16 47.30732 11.69476 7528 ft 192 kts 259°
2026-04-26 15:17 47.30471 11.67558 7216 ft 191 kts 259°
2026-04-26 15:17 47.30294 11.66260 7018 ft 191 kts 260°
2026-04-26 15:17 47.29944 11.63694 6605 ft 196 kts 260°
2026-04-26 15:17 47.29670 11.61689 6271 ft 201 kts 259°
2026-04-26 15:18 47.29392 11.59652 5919 ft 205 kts 260°
2026-04-26 15:18 47.29108 11.57579 5577 ft 206 kts 259°
2026-04-26 15:18 47.28830 11.55562 5252 ft 196 kts 261°
2026-04-26 15:18 47.28565 11.53630 4931 ft 188 kts 259°
2026-04-26 15:19 47.28308 11.51768 4629 ft 182 kts 259°
2026-04-26 15:19 47.28068 11.50021 4332 ft 167 kts 260°
2026-04-26 15:19 47.27841 11.48382 4044 ft 159 kts 261°
2026-04-26 15:19 47.27627 11.46835 3754 ft 150 kts 260°
2026-04-26 15:20 47.27390 11.45350 3535 ft 148 kts 256°
2026-04-26 15:20 47.27081 11.43910 3361 ft 147 kts 256°
2026-04-26 15:20 47.26870 11.42455 3097 ft 144 kts 268°
2026-04-26 15:20 47.26766 11.40982 2871 ft 145 kts 264°
2026-04-26 15:21 47.26585 11.39517 2571 ft 146 kts 263°
2026-04-26 15:21 47.26420 11.38062 2320 ft 144 kts 262°
2026-04-26 15:21 47.26257 11.36610 2094 ft 147 kts 265°
2026-04-26 15:21 47.26099 11.35106 1920 ft 143 kts 262°
2026-04-26 15:22 47.25995 11.34157 1915 ft 46 kts 261°
2026-04-26 15:22 47.25955 11.33813 1917 ft 23 kts 262°
2026-04-26 15:22 47.25895 11.33709 1917 ft 10 kts 149°
2026-04-26 15:22 47.25834 11.33833 1907 ft 20 kts 127°
2026-04-26 15:23 47.25767 11.34041 1910 ft 25 kts 88°
2026-04-26 15:23 47.25797 11.34299 1906 ft 26 kts 79°
2026-04-26 15:23 47.25826 11.34574 1908 ft 28 kts 82°
2026-04-26 15:23 47.25854 11.34826 1911 ft 23 kts 81°
2026-04-26 15:24 47.25844 11.34934 1906 ft 6 kts 146°
2026-04-26 15:24 47.25810 11.34932 1902 ft 0 kts 169°